Location: ??
(34.7707°N, 135.6540°E)
Time: 04:24:02
(UTC+00:00)

Cosmos 2279 Rocket - Pass Details

Date: 09 April 2020
Orbit: 965 x 978 km, 82.9° (Epoch: 27 May)

Event Time Altitude Azimuth Distance (km) Brightness Sun altitude
Rises 18:35:47 0° 345° (NNW) 3,677 7.2 -23.3°
Reaches altitude 10° 18:38:26 10° 338° (NNW) 2,728 6.4 -22.9°
Maximum altitude 18:44:12 41° 271° (W) 1,384 4.4 -21.8°
Enters shadow 18:44:44 40° 258° (WSW) 1,401 4.3 -21.7°
